Total_Precipitation_Accumulation
0.00 0.00 0.00 0.02 0.03 0.03 0.02 0.01 0.04 0.03 0.03 0.02 0.00 0.00 0.00 0.00 0.00 0.00 0.00 0.00 0.00 0.00 0.00 0.00 0.00 0.00 0.00 0.01 0.01 0.01 0.02 0.04 0.03 0.03 0.03 0.03 0.04 0.06 0.07 0.08 0.09 0.14 0.21 0.23
0.00 0.00 0.01 0.02 0.04 0.02 0.00 0.00 0.00 0.00 0.00 0.00 0.00 0.01 0.01 0.01 0.02 0.01 0.01 0.02 0.02 0.02 0.02 0.03 0.02 0.03 0.03 0.03 0.04 0.04 0.07 0.09 0.07 0.07 0.07 0.06 0.07 0.07 0.07 0.08 0.10 0.12 0.14 0.18
0.00 0.00 0.01 0.04 0.03 0.01 0.00 0.00 0.00 0.00 0.01 0.01 0.02 0.03 0.05 0.07 0.08 0.08 0.08 0.08 0.07 0.07 0.05 0.04 0.03 0.02 0.02 0.02 0.02 0.03 0.05 0.10 0.10 0.10 0.09 0.07 0.06 0.06 0.06 0.08 0.11 0.13 0.14 0.16
0.00 0.00 0.03 0.04 0.00 0.00 0.00 0.00 0.01 0.03 0.05 0.08 0.12 0.14 0.17 0.22 0.22 0.16 0.10 0.07 0.04 0.03 0.01 0.01 0.00 0.01 0.01 0.01 0.02 0.02 0.03 0.09 0.14 0.15 0.13 0.10 0.10 0.10 0.10 0.11 0.12 0.14 0.16 0.18
0.00 0.00 0.02 0.01 0.00 0.00 0.01 0.03 0.05 0.10 0.17 0.22 0.26 0.26 0.21 0.16 0.12 0.08 0.04 0.02 0.01 0.01 0.01 0.01 0.01 0.01 0.02 0.03 0.03 0.04 0.06 0.09 0.14 0.20 0.20 0.18 0.17 0.18 0.18 0.19 0.18 0.17 0.17 0.20
0.00 0.00 0.01 0.01 0.01 0.05 0.06 0.13 0.18 0.21 0.21 0.16 0.12 0.11 0.08 0.03 0.01 0.01 0.01 0.00 0.01 0.01 0.01 0.02 0.02 0.03 0.04 0.05 0.07 0.09 0.10 0.14 0.19 0.25 0.27 0.26 0.25 0.26 0.26 0.27 0.25 0.22 0.19 0.20
0.00 0.00 0.01 0.02 0.05 0.10 0.17 0.22 0.18 0.13 0.10 0.08 0.07 0.06 0.03 0.01 0.01 0.01 0.00 0.00 0.01 0.01 0.02 0.04 0.06 0.10 0.14 0.16 0.18 0.18 0.19 0.22 0.26 0.30 0.34 0.32 0.31 0.31 0.31 0.32 0.32 0.31 0.28 0.26
0.00 0.02 0.06 0.05 0.06 0.10 0.10 0.08 0.06 0.05 0.04 0.03 0.02 0.01 0.01 0.00 0.01 0.01 0.00 0.00 0.01 0.02 0.02 0.04 0.09 0.16 0.22 0.23 0.23 0.25 0.29 0.29 0.32 0.37 0.37 0.35 0.41 0.46 0.48 0.47 0.44 0.40 0.43 0.40
0.01 0.04 0.03 0.02 0.02 0.03 0.03 0.03 0.03 0.02 0.02 0.01 0.01 0.00 0.00 0.00 0.00 0.00 0.00 0.00 0.01 0.02 0.03 0.05 0.08 0.13 0.19 0.21 0.22 0.25 0.28 0.30 0.34 0.42 0.45 0.46 0.48 0.51 0.58 0.61 0.57 0.52 0.53 0.55
0.04 0.04 0.04 0.02 0.01 0.01 0.01 0.01 0.01 0.00 0.00 0.00 0.00 0.00 0.00 0.00 0.00 0.00 0.00 0.00 0.01 0.03 0.06 0.06 0.07 0.10 0.15 0.21 0.28 0.32 0.33 0.34 0.36 0.42 0.47 0.54 0.60 0.58 0.59 0.62 0.64 0.64 0.60 0.55
0.02 0.03 0.03 0.01 0.00 0.00 0.00 0.00 0.00 0.00 0.00 0.00 0.00 0.00 0.00 0.00 0.00 0.00 0.01 0.01 0.04 0.07 0.10 0.09 0.09 0.10 0.12 0.18 0.30 0.37 0.36 0.35 0.39 0.42 0.47 0.57 0.66 0.66 0.62 0.63 0.68 0.66 0.57 0.49
0.00 0.00 0.00 0.00 0.00 0.00 0.00 0.00 0.00 0.00 0.00 0.00 0.00 0.00 0.00 0.00 0.00 0.01 0.02 0.06 0.10 0.12 0.13 0.13 0.12 0.13 0.14 0.19 0.31 0.40 0.39 0.37 0.39 0.42 0.47 0.54 0.63 0.66 0.56 0.50 0.51 0.51 0.45 0.37
0.00 0.00 0.00 0.00 0.00 0.00 0.00 0.00 0.00 0.00 0.00 0.00 0.00 0.00 0.00 0.00 0.00 0.02 0.06 0.12 0.19 0.21 0.20 0.19 0.19 0.19 0.19 0.25 0.39 0.52 0.47 0.41 0.43 0.44 0.45 0.48 0.53 0.61 0.62 0.50 0.41 0.37 0.30 0.22
0.00 0.00 0.00 0.00 0.00 0.00 0.00 0.00 0.00 0.00 0.00 0.00 0.00 0.00 0.00 0.00 0.02 0.06 0.12 0.21 0.27 0.28 0.27 0.27 0.27 0.25 0.25 0.29 0.34 0.57 0.65 0.54 0.44 0.41 0.44 0.47 0.49 0.54 0.61 0.62 0.53 0.40 0.27 0.18
0.00 0.00 0.00 0.00 0.00 0.00 0.00 0.00 0.00 0.00 0.00 0.00 0.00 0.00 0.00 0.02 0.06 0.11 0.19 0.31 0.39 0.38 0.35 0.34 0.34 0.30 0.29 0.30 0.31 0.40 0.59 0.61 0.52 0.45 0.45 0.48 0.49 0.51 0.56 0.60 0.64 0.60 0.40 0.22
0.00 0.00 0.00 0.00 0.00 0.00 0.00 0.00 0.00 0.00 0.00 0.00 0.00 0.01 0.02 0.04 0.08 0.14 0.24 0.40 0.58 0.60 0.51 0.46 0.42 0.36 0.33 0.34 0.34 0.36 0.44 0.42 0.42 0.47 0.48 0.50 0.51 0.50 0.52 0.59 0.63 0.63 0.50 0.29
0.00 0.00 0.00 0.00 0.00 0.00 0.00 0.00 0.00 0.00 0.00 0.00 0.01 0.03 0.05 0.10 0.18 0.27 0.35 0.44 0.56 0.60 0.58 0.57 0.50 0.41 0.37 0.37 0.38 0.39 0.45 0.38 0.27 0.35 0.44 0.47 0.50 0.52 0.52 0.55 0.58 0.58 0.48 0.28
0.00 0.00 0.00 0.00 0.00 0.00 0.00 0.00 0.00 0.00 0.01 0.02 0.04 0.07 0.12 0.22 0.39 0.51 0.57 0.61 0.61 0.54 0.51 0.54 0.45 0.36 0.32 0.31 0.34 0.37 0.47 0.45 0.30 0.31 0.40 0.42 0.45 0.52 0.53 0.51 0.51 0.50 0.40 0.22
0.00 0.00 0.00 0.00 0.00 0.00 0.00 0.00 0.00 0.01 0.03 0.06 0.11 0.16 0.20 0.29 0.46 0.60 0.66 0.77 0.84 0.76 0.61 0.51 0.39 0.32 0.29 0.23 0.22 0.29 0.40 0.45 0.34 0.29 0.35 0.31 0.34 0.44 0.48 0.46 0.46 0.44 0.32 0.20
0.00 0.00 0.00 0.00 0.00 0.00 0.00 0.01 0.02 0.05 0.07 0.13 0.21 0.27 0.32 0.38 0.49 0.60 0.63 0.70 0.84 0.86 0.72 0.54 0.36 0.28 0.23 0.17 0.17 0.25 0.35 0.42 0.33 0.24 0.25 0.28 0.30 0.35 0.39 0.38 0.37 0.35 0.25 0.16
0.00 0.00 0.00 0.00 0.00 0.00 0.01 0.02 0.06 0.10 0.13 0.18 0.28 0.36 0.44 0.44 0.46 0.55 0.68 0.75 0.70 0.74 0.72 0.62 0.42 0.27 0.18 0.16 0.18 0.26 0.35 0.41 0.33 0.21 0.19 0.21 0.24 0.29 0.30 0.28 0.26 0.23 0.16 0.11
0.00 0.00 0.00 0.00 0.00 0.00 0.01 0.03 0.06 0.10 0.15 0.25 0.33 0.39 0.48 0.47 0.47 0.47 0.50 0.63 0.67 0.75 0.70 0.63 0.51 0.35 0.22 0.16 0.18 0.23 0.31 0.35 0.30 0.19 0.14 0.15 0.18 0.22 0.21 0.19 0.18 0.13 0.08 0.07
0.00 0.00 0.00 0.00 0.00 0.00 0.01 0.02 0.03 0.07 0.18 0.31 0.37 0.44 0.50 0.46 0.50 0.60 0.55 0.45 0.50 0.62 0.55 0.48 0.48 0.39 0.26 0.19 0.17 0.20 0.29 0.35 0.33 0.20 0.13 0.13 0.14 0.14 0.13 0.11 0.09 0.06 0.04 0.04
0.00 0.00 0.00 0.00 0.00 0.00 0.02 0.03 0.02 0.05 0.17 0.28 0.29 0.35 0.40 0.40 0.41 0.44 0.44 0.42 0.44 0.49 0.41 0.36 0.37 0.35 0.32 0.27 0.24 0.24 0.30 0.34 0.31 0.20 0.13 0.12 0.11 0.10 0.09 0.06 0.04 0.04 0.04 0.04
0.00 0.00 0.00 0.00 0.01 0.02 0.04 0.04 0.03 0.06 0.19 0.32 0.27 0.28 0.28 0.30 0.38 0.38 0.35 0.30 0.33 0.37 0.33 0.31 0.30 0.29 0.27 0.31 0.34 0.32 0.29 0.28 0.25 0.18 0.13 0.11 0.10 0.08 0.07 0.05 0.05 0.04 0.04 0.03
0.01 0.01 0.01 0.01 0.02 0.03 0.04 0.04 0.04 0.06 0.22 0.43 0.39 0.31 0.25 0.21 0.21 0.25 0.29 0.27 0.28 0.33 0.29 0.25 0.22 0.23 0.24 0.32 0.36 0.33 0.27 0.25 0.24 0.22 0.18 0.16 0.14 0.12 0.09 0.08 0.06 0.05 0.04 0.04
0.01 0.01 0.01 0.01 0.01 0.01 0.02 0.03 0.03 0.05 0.18 0.43 0.48 0.32 0.21 0.16 0.16 0.20 0.26 0.28 0.27 0.26 0.23 0.18 0.14 0.14 0.18 0.22 0.23 0.23 0.23 0.24 0.26 0.25 0.21 0.18 0.16 0.13 0.11 0.09 0.06 0.05 0.04 0.05